Regional Weather Roundup
Issued by NWS

Home | Current Version | Previous Version | Graphics & Text | Print | Product List | Glossary On
Versions: 1 2 3 4 5 6 7 8 9 10 11 12 13 14 15 16 17 18 19 20 21 22 23 24 25 26 27 28
000
ASUS45 KGTF 042110
RWRMT
MONTANA HOURLY WEATHER ROUNDUP
NATIONAL WEATHER SERVICE GREAT FALLS MT
300 PM MDT MON MAY 04 2015

NOTE: "FAIR" INDICATES FEW OR NO CLOUDS BELOW 12000 FEET WITH NO
SIGNIFICANT WEATHER AND/OR OBSTRUCTIONS TO VISIBILITY.

MTZ001>007-043-042200-
WEST OF THE DIVIDE

CITY           SKY/WX    TMP DP  RH WIND       PRES   REMARKS
KALISPELL      CLEAR     71  23  16 S14       29.84F
MISSOULA       MOSUNNY   72  24  16 CALM      29.85F
BUTTE          MOSUNNY   69  12  11 MISG      29.93F
DEER LODGE       N/A     70  27  19 N8        29.92F
EUREKA           N/A     72  27  18 S3        29.82F
HAMILTON         N/A     75  27  16 W3        29.84F
LIBBY            N/A     73  27  17 SW5       29.81F
$$

MTZ008-052>055-042200-
SOUTHWEST MONTANA

CITY           SKY/WX    TMP DP  RH WIND       PRES   REMARKS
BOZEMAN        MOSUNNY   72  39  30 E6        29.90F
DILLON         MOSUNNY   74  21  13 W18       29.90F
$$

MTZ009-010-012-014-046-048-049-054-042200-
EAST SLOPES AND CENTRAL MONTANA

CITY           SKY/WX    TMP DP  RH WIND       PRES   REMARKS
CUT BANK       SUNNY     69  24  18 SW10G16   29.85F
GREAT FALLS    SUNNY     73  27  18 S7        29.84F
MALMSTROM AFB  SUNNY     71  33  24 N2        29.84F
HELENA         SUNNY     76  32  20 MISG      29.87F
$$

MTZ011-013-016-021-045-047-050-051-042200-
NORTH CENTRAL MONTANA

CITY           SKY/WX    TMP DP  RH WIND       PRES   REMARKS
HAVRE          SUNNY     75  36  24 SW8       29.83F
LEWISTOWN      MOSUNNY   73  36  25 N10       29.88F
CHINOOK          N/A     75  39  27 E13G18    29.84F
FORT BENTON      N/A     75  37  25 CALM      29.84F
$$

MTZ017>020-022>042-056>058-061-062-042200-
EASTERN PLAINS

CITY           SKY/WX    TMP DP  RH WIND       PRES   REMARKS
BAKER          CLOUDY    61  41  47 S33G39    30.09F
BILLINGS       MOSUNNY   73  41  31 VRB7      29.91F
GLASGOW        SUNNY     73  40  30 SE23G29   29.93F
JORDAN           N/A     75  40  28 SE20G28   29.91F
LIVINGSTON     MOSUNNY   67  38  34 E9        29.92S
MILES CITY     SUNNY     70  44  39 SE25G35   29.97F
SIDNEY         MOSUNNY   70  43  37 SE17G28   30.04F
WOLF POINT     MOSUNNY   73  41  31 S13G22    29.97F
BIG TIMBER       N/A     66  36  32 SE9       29.93F
FORSYTH          N/A     72  43  35 SE14      29.93F
PLENTYWOOD       N/A     70  30  23 SE17G25   30.02F
POPLAR           N/A     72  39  30 SE16      29.99F
$$

REGIONAL REPORTS...DAKOTAS

CITY           SKY/WX    TMP DP  RH WIND       PRES   REMARKS
WILLISTON      SUNNY     73  29  19 SE15G22   30.05F
MINOT          SUNNY     70  24  17 SE9       30.11F
DICKINSON      SUNNY     63  36  36 S23G35    30.11F
BEACH          FAIR      63  41  45 S28G36    30.09S
CROSBY         FAIR      70  27  19 S9        30.06F
WATFORD CITY   FAIR      70  32  24 S18G29    30.06F
BISMARCK       SUNNY     69  25  19 SE14      30.17F
GRAND FORKS    MOSUNNY   69  26  20 N7        30.18F
FARGO          MOSUNNY   69  27  20 CALM      30.18F
BUFFALO SD       N/A     51  36  56 SE28G33   30.07F
RAPID CITY     LGT RAIN  53  38  56 SE7       30.17F
$$

REGIONAL REPORTS...WYOMING/IDAHO/WASHINGTON

CITY           SKY/WX    TMP DP  RH WIND       PRES   REMARKS
GILLETTE       SUNNY     61  40  45 SE28G36   30.03F
SHERIDAN       MOSUNNY   71  43  36 SE14      29.95F
BUFFALO WY     PTSUNNY   65  42  43 S8        30.00F
CODY           CLOUDY    55  45  67 S13G35    29.99R THUNDER
YELLOWSTONE LA   N/A     51  32  48 VRB3      30.09F
IDAHO FALLS    PTSUNNY   74  33  22 W6        29.92F
SALMON           N/A     73  30  20 N7        29.85F
BOISE          SUNNY     83  33  16 VRB5      29.80F
SPOKANE        MOSUNNY   72  27  18 CALM      29.82F
$$

REGIONAL REPORTS...ALBERTA

CITY           SKY/WX    TMP DP  RH WIND       PRES   REMARKS
EDMONTON       PTSUNNY   59  32  36 E15G23    29.91F
CALGARY        PTSUNNY   68  16  13 E14       29.83F
LETHBRIDGE       N/A     68  28  22 NE3       29.83F
MEDICINE HAT   MOSUNNY   73  36  25 SW14      29.83F
$$

REGIONAL REPORTS...SASKATCHEWAN

CITY           SKY/WX    TMP DP  RH WIND       PRES   REMARKS
SWIFT CURRENT  MOSUNNY   68  28  22 SE20G30   29.91F
REGINA         MOSUNNY   66  30  26 S10G17    30.03F
SASKATOON      CLOUDY    64  27  24 S13       30.04F
$$



USA.gov is the U.S. government's official web portal to all federal, state and local government web resources and services.